Time,TemperatureF,DewpointF,PressureIn,WindDirection,WindDirectionDegrees,WindSpeedMPH,WindSpeedGustMPH,Humidity,HourlyPrecipIn,Conditions,Clouds,dailyrainin,SoftwareType,DateUTC
2013-06-17 00:02:00,68.0,67.0,-100.00,SW,225,1.0,3.0,96,0.00,,,-99.99,,2013-06-17 04:02:00,
2013-06-17 00:12:00,67.0,67.0,-100.00,SSW,200,1.0,2.0,96,0.00,,,-99.99,,2013-06-17 04:12:00,
2013-06-17 00:22:00,67.0,67.0,-100.00,SW,225,0.0,3.0,97,0.00,,,-99.99,,2013-06-17 04:22:00,
2013-06-17 00:34:00,67.0,66.0,-100.00,SW,215,2.0,4.0,97,0.00,,,-99.99,,2013-06-17 04:34:00,
2013-06-17 00:43:00,67.0,66.0,-100.00,WSW,255,0.0,4.0,97,0.00,,,-99.99,,2013-06-17 04:43:00,
2013-06-17 00:53:00,67.0,66.0,-100.00,WSW,255,0.0,4.0,97,0.00,,,-99.99,,2013-06-17 04:53:00,
2013-06-17 01:02:00,67.0,66.0,-100.00,West,260,1.0,6.0,97,0.00,,,-99.99,,2013-06-17 05:02:00,
2013-06-17 01:12:00,67.0,66.0,-100.00,WSW,255,0.0,7.0,97,0.00,,,-99.99,,2013-06-17 05:12:00,
2013-06-17 01:22:00,67.0,66.0,-100.00,WSW,250,1.0,3.0,98,0.00,,,-99.99,,2013-06-17 05:22:00,
2013-06-17 01:33:00,67.0,66.0,-100.00,WSW,240,1.0,6.0,98,0.00,,,-99.99,,2013-06-17 05:33:00,
2013-06-17 01:44:00,67.0,66.0,-100.00,SSW,205,0.0,4.0,98,0.00,,,-99.99,,2013-06-17 05:44:00,
2013-06-17 01:53:00,66.0,66.0,-100.00,West,275,1.0,3.0,98,0.00,,,-99.99,,2013-06-17 05:53:00,
2013-06-17 02:02:00,66.0,65.0,-100.00,SW,230,1.0,6.0,98,0.00,,,-99.99,,2013-06-17 06:02:00,
2013-06-17 02:12:00,66.0,66.0,-100.00,SW,235,1.0,4.0,98,0.00,,,-99.99,,2013-06-17 06:12:00,
2013-06-17 02:22:00,66.0,65.0,-100.00,West,280,1.0,4.0,98,0.00,,,-99.99,,2013-06-17 06:22:00,
2013-06-17 02:33:00,66.0,65.0,-100.00,WSW,250,1.0,3.0,98,0.00,,,-99.99,,2013-06-17 06:33:00,
2013-06-17 02:43:00,66.0,65.0,-100.00,West,280,0.0,9.0,98,0.00,,,-99.99,,2013-06-17 06:43:00,
2013-06-17 02:53:00,66.0,65.0,-100.00,SW,225,0.0,4.0,98,0.00,,,-99.99,,2013-06-17 06:53:00,
2013-06-17 03:02:00,66.0,65.0,-100.00,SW,225,1.0,3.0,98,0.00,,,-99.99,,2013-06-17 07:02:00,
2013-06-17 03:12:00,66.0,65.0,-100.00,West,280,1.0,6.0,98,0.00,,,-99.99,,2013-06-17 07:12:00,
2013-06-17 03:22:00,66.0,65.0,-100.00,SW,235,1.0,5.0,98,0.00,,,-99.99,,2013-06-17 07:22:00,
2013-06-17 03:33:00,65.0,65.0,-100.00,SW,230,1.0,5.0,98,0.00,,,-99.99,,2013-06-17 07:33:00,
2013-06-17 03:43:00,65.0,65.0,-100.00,WSW,240,0.0,6.0,98,0.00,,,-99.99,,2013-06-17 07:43:00,
2013-06-17 03:53:00,65.0,65.0,-100.00,SSW,200,1.0,5.0,98,0.00,,,-99.99,,2013-06-17 07:53:00,
2013-06-17 04:02:00,66.0,65.0,-100.00,SW,215,1.0,3.0,98,0.00,,,-99.99,,2013-06-17 08:02:00,
2013-06-17 04:12:00,66.0,65.0,-100.00,WSW,250,3.0,6.0,98,0.00,,,-99.99,,2013-06-17 08:12:00,
2013-06-17 04:22:00,66.0,65.0,-100.00,SW,225,1.0,6.0,98,0.00,,,-99.99,,2013-06-17 08:22:00,
2013-06-17 04:34:00,66.0,66.0,-100.00,SE,145,1.0,4.0,98,1.69,,,-99.99,,2013-06-17 08:34:00,
2013-06-17 04:43:00,66.0,66.0,-100.00,SSW,205,0.0,6.0,98,0.00,,,-99.99,,2013-06-17 08:43:00,
2013-06-17 04:53:00,66.0,66.0,-100.00,SSE,155,1.0,6.0,98,0.00,,,-99.99,,2013-06-17 08:53:00,
2013-06-17 05:02:00,66.0,66.0,-100.00,SW,230,1.0,4.0,99,0.00,,,-99.99,,2013-06-17 09:02:00,
2013-06-17 05:12:00,66.0,65.0,-100.00,SSW,205,0.0,4.0,99,0.00,,,-99.99,,2013-06-17 09:12:00,
2013-06-17 05:22:00,66.0,65.0,-100.00,South,190,1.0,4.0,99,0.00,,,-99.99,,2013-06-17 09:22:00,
2013-06-17 05:34:00,65.0,65.0,-100.00,WSW,250,1.0,5.0,99,0.00,,,-99.99,,2013-06-17 09:34:00,
2013-06-17 05:43:00,65.0,65.0,-100.00,West,275,0.0,4.0,99,0.00,,,-99.99,,2013-06-17 09:43:00,
2013-06-17 05:52:00,65.0,65.0,-100.00,ENE,60,1.0,4.0,99,0.00,,,-99.99,,2013-06-17 09:52:00,
2013-06-17 06:02:00,65.0,65.0,-100.00,SW,225,1.0,3.0,99,0.00,,,-99.99,,2013-06-17 10:02:00,
2013-06-17 06:12:00,65.0,65.0,-100.00,SW,225,0.0,3.0,99,0.00,,,-99.99,,2013-06-17 10:12:00,
2013-06-17 06:22:00,66.0,66.0,-100.00,ESE,105,1.0,4.0,99,0.00,,,-99.99,,2013-06-17 10:22:00,
2013-06-17 06:33:00,66.0,66.0,-100.00,WSW,255,1.0,6.0,99,0.00,,,-99.99,,2013-06-17 10:33:00,
2013-06-17 06:43:00,66.0,66.0,-100.00,West,265,3.0,7.0,99,0.00,,,-99.99,,2013-06-17 10:43:00,
2013-06-17 06:53:00,66.0,66.0,-100.00,West,280,3.0,6.0,99,0.00,,,-99.99,,2013-06-17 10:53:00,
2013-06-17 07:02:00,66.0,66.0,-100.00,SSW,205,1.0,7.0,99,0.00,,,-99.99,,2013-06-17 11:02:00,
2013-06-17 07:12:00,66.0,66.0,-100.00,WSW,240,1.0,7.0,99,0.00,,,-99.99,,2013-06-17 11:12:00,
2013-06-17 07:23:00,67.0,66.0,-100.00,WSW,240,3.0,7.0,99,0.00,,,-99.99,,2013-06-17 11:23:00,
2013-06-17 07:33:00,67.0,66.0,-100.00,SW,230,1.0,9.0,98,0.00,,,-99.99,,2013-06-17 11:33:00,
2013-06-17 07:43:00,67.0,67.0,-100.00,West,275,4.0,9.0,98,0.00,,,-99.99,,2013-06-17 11:43:00,
2013-06-17 07:53:00,67.0,67.0,-100.00,West,280,2.0,6.0,98,0.00,,,-99.99,,2013-06-17 11:53:00,
2013-06-17 08:02:00,68.0,67.0,-100.00,West,260,5.0,9.0,98,0.00,,,-99.99,,2013-06-17 12:02:00,
2013-06-17 08:12:00,67.0,67.0,-100.00,SW,225,2.0,9.0,97,0.00,,,-99.99,,2013-06-17 12:12:00,
2013-06-17 08:23:00,68.0,67.0,-100.00,SW,215,2.0,6.0,98,0.00,,,-99.99,,2013-06-17 12:23:00,
2013-06-17 08:33:00,68.0,67.0,-100.00,West,260,3.0,6.0,98,0.00,,,-99.99,,2013-06-17 12:33:00,
2013-06-17 08:43:00,69.0,68.0,-100.00,WSW,255,1.0,8.0,97,0.00,,,-99.99,,2013-06-17 12:43:00,
2013-06-17 08:53:00,69.0,68.0,-100.00,West,275,2.0,7.0,95,0.00,,,-99.99,,2013-06-17 12:53:00,
2013-06-17 09:01:00,70.0,67.0,-100.00,West,275,4.0,8.0,93,0.00,,,-99.99,,2013-06-17 13:01:00,
2013-06-17 09:12:00,70.0,68.0,-100.00,WSW,250,3.0,9.0,92,0.00,,,-99.99,,2013-06-17 13:12:00,
2013-06-17 09:22:00,70.0,68.0,-100.00,West,260,1.0,11.0,93,0.00,,,-99.99,,2013-06-17 13:22:00,
2013-06-17 09:32:00,70.0,68.0,-100.00,SSW,200,1.0,6.0,93,0.00,,,-99.99,,2013-06-17 13:32:00,
2013-06-17 09:43:00,70.0,68.0,-100.00,WSW,240,1.0,7.0,93,0.00,,,-99.99,,2013-06-17 13:43:00,
2013-06-17 09:52:00,70.0,68.0,-100.00,WSW,240,1.0,7.0,93,0.00,,,-99.99,,2013-06-17 13:52:00,
2013-06-17 10:02:00,71.0,68.0,-100.00,West,280,4.0,9.0,90,0.00,,,-99.99,,2013-06-17 14:02:00,
2013-06-17 10:12:00,71.0,67.0,-100.00,West,265,2.0,12.0,86,0.00,,,-99.99,,2013-06-17 14:12:00,
2013-06-17 10:22:00,72.0,68.0,-100.00,South,175,2.0,6.0,86,0.00,,,-99.99,,2013-06-17 14:22:00,
2013-06-17 10:34:00,74.0,68.0,-100.00,West,280,5.0,11.0,83,0.00,,,-99.99,,2013-06-17 14:34:00,
2013-06-17 10:43:00,74.0,68.0,-100.00,SW,230,4.0,9.0,82,0.00,,,-99.99,,2013-06-17 14:43:00,
2013-06-17 10:53:00,73.0,68.0,-100.00,West,265,3.0,9.0,82,0.00,,,-99.99,,2013-06-17 14:53:00,
2013-06-17 11:02:00,74.0,67.0,-100.00,South,185,1.0,7.0,79,0.00,,,-99.99,,2013-06-17 15:02:00,
2013-06-17 11:12:00,74.0,67.0,-100.00,South,185,1.0,7.0,79,0.00,,,-99.99,,2013-06-17 15:12:00,
2013-06-17 11:22:00,74.0,69.0,-100.00,West,270,2.0,6.0,82,0.00,,,-99.99,,2013-06-17 15:22:00,
2013-06-17 11:33:00,75.0,68.0,-100.00,West,270,4.0,8.0,78,0.00,,,-99.99,,2013-06-17 15:33:00,
2013-06-17 11:43:00,76.0,68.0,-100.00,SSE,150,1.0,9.0,77,0.00,,,-99.99,,2013-06-17 15:43:00,
2013-06-17 11:52:00,76.0,68.0,-100.00,SSE,150,1.0,9.0,77,0.00,,,-99.99,,2013-06-17 15:52:00,
2013-06-17 12:02:00,76.0,69.0,-100.00,South,170,1.0,9.0,78,0.00,,,-99.99,,2013-06-17 16:02:00,
2013-06-17 12:12:00,77.0,68.0,-100.00,South,185,1.0,6.0,75,0.00,,,-99.99,,2013-06-17 16:12:00,
2013-06-17 12:22:00,76.0,68.0,-100.00,SSE,160,1.0,6.0,78,0.00,,,-99.99,,2013-06-17 16:22:00,
2013-06-17 12:33:00,77.0,69.0,-100.00,South,180,1.0,8.0,75,0.00,,,-99.99,,2013-06-17 16:33:00,
2013-06-17 12:43:00,78.0,69.0,-100.00,SE,125,1.0,5.0,73,0.00,,,-99.99,,2013-06-17 16:43:00,
2013-06-17 12:53:00,78.0,68.0,-100.00,SE,145,1.0,6.0,70,0.00,,,-99.99,,2013-06-17 16:53:00,
2013-06-17 13:02:00,80.0,68.0,-100.00,West,270,4.0,8.0,67,0.00,,,-99.99,,2013-06-17 17:02:00,
2013-06-17 13:12:00,80.0,68.0,-100.00,West,270,4.0,8.0,67,0.00,,,-99.99,,2013-06-17 17:12:00,
2013-06-17 13:22:00,78.0,69.0,-100.00,SSW,195,1.0,4.0,74,0.00,,,-99.99,,2013-06-17 17:22:00,
2013-06-17 13:33:00,78.0,68.0,-100.00,South,170,1.0,6.0,72,0.00,,,-99.99,,2013-06-17 17:33:00,
2013-06-17 13:43:00,78.0,69.0,-100.00,SSE,165,1.0,5.0,73,0.00,,,-99.99,,2013-06-17 17:43:00,
2013-06-17 13:52:00,78.0,69.0,-100.00,South,175,1.0,3.0,73,0.00,,,-99.99,,2013-06-17 17:52:00,
2013-06-17 14:02:00,78.0,69.0,-100.00,South,175,1.0,3.0,73,0.00,,,-99.99,,2013-06-17 18:02:00,
2013-06-17 14:12:00,79.0,69.0,-100.00,SSE,150,1.0,4.0,72,0.00,,,-99.99,,2013-06-17 18:12:00,
2013-06-17 14:23:00,77.0,69.0,-100.00,SSW,200,1.0,5.0,75,0.00,,,-99.99,,2013-06-17 18:23:00,
2013-06-17 14:33:00,78.0,70.0,-100.00,West,265,1.0,6.0,74,0.00,,,-99.99,,2013-06-17 18:33:00,
2013-06-17 14:43:00,78.0,69.0,-100.00,SSE,165,1.0,4.0,74,0.00,,,-99.99,,2013-06-17 18:43:00,
2013-06-17 14:53:00,78.0,69.0,-100.00,West,265,0.0,6.0,75,0.00,,,-99.99,,2013-06-17 18:53:00,
2013-06-17 15:02:00,78.0,69.0,-100.00,West,265,0.0,6.0,75,0.00,,,-99.99,,2013-06-17 19:02:00,
2013-06-17 15:12:00,78.0,70.0,-100.00,SSE,150,1.0,6.0,77,0.00,,,-99.99,,2013-06-17 19:12:00,
2013-06-17 15:22:00,80.0,70.0,-100.00,ESE,120,1.0,9.0,73,0.00,,,-99.99,,2013-06-17 19:22:00,
2013-06-17 15:33:00,81.0,69.0,-100.00,SSW,200,3.0,13.0,67,0.00,,,-99.99,,2013-06-17 19:33:00,
2013-06-17 15:43:00,80.0,69.0,-100.00,SSW,210,2.0,12.0,70,0.00,,,-99.99,,2013-06-17 19:43:00,
2013-06-17 15:53:00,81.0,68.0,-100.00,SSW,200,2.0,10.0,65,0.00,,,-99.99,,2013-06-17 19:53:00,
2013-06-17 16:02:00,81.0,68.0,-100.00,SSW,200,2.0,10.0,65,0.00,,,-99.99,,2013-06-17 20:02:00,
2013-06-17 16:11:00,82.0,68.0,-100.00,South,180,3.0,10.0,63,0.00,,,-99.99,,2013-06-17 20:11:00,
2013-06-17 16:22:00,80.0,68.0,-100.00,SSW,200,2.0,8.0,67,0.00,,,-99.99,,2013-06-17 20:22:00,
2013-06-17 16:34:00,80.0,68.0,-100.00,South,185,1.0,6.0,66,0.00,,,-99.99,,2013-06-17 20:34:00,
2013-06-17 16:43:00,80.0,69.0,-100.00,South,185,1.0,8.0,70,0.00,,,-99.99,,2013-06-17 20:43:00,
2013-06-17 16:52:00,80.0,69.0,-100.00,SW,235,1.0,4.0,68,0.00,,,-99.99,,2013-06-17 20:52:00,
2013-06-17 17:01:00,80.0,69.0,-100.00,SW,235,1.0,4.0,68,0.00,,,-99.99,,2013-06-17 21:01:00,
2013-06-17 17:12:00,81.0,69.0,-100.00,SSW,210,3.0,10.0,66,0.00,,,-99.99,,2013-06-17 21:12:00,
2013-06-17 17:22:00,80.0,68.0,-100.00,South,180,2.0,7.0,67,0.00,,,-99.99,,2013-06-17 21:22:00,
2013-06-17 17:33:00,80.0,69.0,-100.00,SSW,200,2.0,6.0,67,0.00,,,-99.99,,2013-06-17 21:33:00,
2013-06-17 17:43:00,82.0,68.0,-100.00,SSW,205,2.0,13.0,62,0.00,,,-99.99,,2013-06-17 21:43:00,
2013-06-17 17:52:00,80.0,67.0,-100.00,SSE,165,1.0,7.0,64,0.00,,,-99.99,,2013-06-17 21:52:00,
2013-06-17 18:01:00,83.0,67.0,-100.00,West,270,4.0,9.0,58,0.00,,,-99.99,,2013-06-17 22:01:00,
2013-06-17 18:11:00,82.0,68.0,-100.00,WSW,255,1.0,9.0,63,0.00,,,-99.99,,2013-06-17 22:11:00,
2013-06-17 18:22:00,80.0,68.0,-100.00,SSW,200,1.0,4.0,67,0.00,,,-99.99,,2013-06-17 22:22:00,
2013-06-17 18:34:00,79.0,68.0,-100.00,WSW,255,1.0,6.0,68,0.00,,,-99.99,,2013-06-17 22:34:00,
2013-06-17 18:43:00,79.0,67.0,-100.00,SSE,155,1.0,3.0,68,0.00,,,-99.99,,2013-06-17 22:43:00,
2013-06-17 19:02:00,78.0,69.0,-100.00,South,190,1.0,5.0,74,0.00,,,-99.99,,2013-06-17 23:02:00,
2013-06-17 19:11:00,78.0,69.0,-100.00,SW,215,1.0,6.0,74,0.00,,,-99.99,,2013-06-17 23:11:00,
2013-06-17 19:22:00,78.0,69.0,-100.00,West,265,0.0,4.0,74,0.00,,,-99.99,,2013-06-17 23:22:00,
2013-06-17 19:32:00,78.0,68.0,-100.00,NNE,20,2.0,6.0,72,0.00,,,-99.99,,2013-06-17 23:32:00,
2013-06-17 19:42:00,74.0,64.0,-100.00,ENE,60,9.0,15.0,71,0.00,,,-99.99,,2013-06-17 23:42:00,
2013-06-17 19:53:00,73.0,64.0,-100.00,NE,35,3.0,12.0,72,0.00,,,-99.99,,2013-06-17 23:53:00,
2013-06-17 20:22:00,66.0,66.0,-100.00,South,190,1.0,3.0,98,0.00,,,-99.99,,2013-06-18 00:22:00,
2013-06-17 21:01:00,67.0,66.0,-100.00,West,275,3.0,6.0,98,0.00,,,-99.99,,2013-06-18 01:01:00,
2013-06-17 21:12:00,67.0,67.0,-100.00,South,175,0.0,10.0,98,0.00,,,-99.99,,2013-06-18 01:12:00,
2013-06-17 21:23:00,67.0,67.0,-100.00,NW,315,1.0,6.0,98,0.00,,,-99.99,,2013-06-18 01:23:00,
2013-06-17 21:34:00,67.0,67.0,-100.00,SW,230,1.0,5.0,98,0.00,,,-99.99,,2013-06-18 01:34:00,
2013-06-17 21:44:00,67.0,67.0,-100.00,West,280,2.0,6.0,97,0.00,,,-99.99,,2013-06-18 01:44:00,
2013-06-17 21:53:00,67.0,66.0,-100.00,SSW,205,0.0,3.0,96,0.00,,,-99.99,,2013-06-18 01:53:00,
2013-06-17 22:02:00,67.0,66.0,-100.00,WSW,255,1.0,7.0,97,0.00,,,-99.99,,2013-06-18 02:02:00,
2013-06-17 22:11:00,67.0,66.0,-100.00,WSW,255,1.0,7.0,97,0.00,,,-99.99,,2013-06-18 02:11:00,
2013-06-17 22:22:00,66.0,66.0,-100.00,SE,130,0.0,6.0,98,0.00,,,-99.99,,2013-06-18 02:22:00,
2013-06-17 22:34:00,66.0,65.0,-100.00,SSE,150,0.0,4.0,98,0.00,,,-99.99,,2013-06-18 02:34:00,
2013-06-17 22:43:00,66.0,65.0,-100.00,South,180,0.0,6.0,98,0.00,,,-99.99,,2013-06-18 02:43:00,
2013-06-17 22:53:00,66.0,66.0,-100.00,SW,225,2.0,6.0,98,0.00,,,-99.99,,2013-06-18 02:53:00,
2013-06-17 23:02:00,66.0,66.0,-100.00,West,260,1.0,6.0,98,0.00,,,-99.99,,2013-06-18 03:02:00,
2013-06-17 23:12:00,66.0,66.0,-100.00,West,260,1.0,6.0,98,0.00,,,-99.99,,2013-06-18 03:12:00,
2013-06-17 23:23:00,66.0,65.0,-100.00,SSW,205,0.0,5.0,98,0.00,,,-99.99,,2013-06-18 03:23:00,
2013-06-17 23:34:00,66.0,65.0,-100.00,West,260,1.0,6.0,98,0.00,,,-99.99,,2013-06-18 03:34:00,
2013-06-17 23:43:00,66.0,65.0,-100.00,SW,215,1.0,4.0,98,0.00,,,-99.99,,2013-06-18 03:43:00,
2013-06-17 23:53:00,65.0,65.0,-100.00,WSW,240,1.0,3.0,98,0.00,,,-99.99,,2013-06-18 03:53:00,